Location: Blangy-Tronville
(49.8790°N, 2.4226°E)
Time: 02:09:12
(UTC+00:00)

Cosmos 407 Rocket - Pass Details

Date: 18 November 2025
Orbit: 740 x 780 km, 74.0° (Epoch: 04 December)

Event Time Altitude Azimuth Distance (km) Brightness Sun altitude
Rises 18:04:49 0° 219° (SW) 3,205 7.4 -19.4°
Reaches altitude 10° 18:07:16 10° 225° (SW) 2,278 6.7 -19.7°
Maximum altitude 18:12:15 49° 300° (WNW) 972 4.3 -20.5°
Enters shadow 18:17:06 11° 15° (NNE) 2,221 5.7 -21.3°
